MFD YMBA-YBCS

Flight info

Callsign MFD
Flight time 0h 19m
Altitude 4500
Route DCT
Aircraft C208/L-VGD/A

Departure

Time 2026-04-25 12:16
Airport Mareeba Airport (YMBA)

Arrival

Time 2026-04-25 12:35
Airport Cairns International Airport (YBCS)
Time Latitude Longitude Altitude Speed Heading
2026-04-25 12:11 -17.07152 145.43222 1579 ft 0 kts 21°
2026-04-25 12:13 -17.07149 145.43224 1579 ft 2 kts 24°
2026-04-25 12:14 -17.07126 145.43219 1579 ft 5 kts 297°
2026-04-25 12:14 -17.07109 145.43149 1578 ft 11 kts 290°
2026-04-25 12:14 -17.07090 145.43068 1577 ft 11 kts 243°
2026-04-25 12:14 -17.07146 145.43041 1579 ft 7 kts 200°
2026-04-25 12:15 -17.07195 145.43022 1579 ft 9 kts 198°
2026-04-25 12:15 -17.07217 145.42987 1579 ft 6 kts 285°
2026-04-25 12:15 -17.07178 145.42864 1578 ft 55 kts 290°
2026-04-25 12:15 -17.06950 145.42189 1587 ft 129 kts 286°
2026-04-25 12:16 -17.06656 145.41211 2005 ft 140 kts 284°
2026-04-25 12:16 -17.06117 145.40387 2449 ft 143 kts 333°
2026-04-25 12:16 -17.05162 145.40214 2898 ft 137 kts
2026-04-25 12:16 -17.04193 145.40166 3320 ft 142 kts
2026-04-25 12:17 -17.03221 145.40062 3825 ft 140 kts 359°
2026-04-25 12:17 -17.02177 145.39943 3945 ft 163 kts
2026-04-25 12:17 -17.01020 145.39842 4249 ft 163 kts
2026-04-25 12:17 -16.99867 145.39757 4421 ft 172 kts
2026-04-25 12:18 -16.98623 145.39671 4432 ft 183 kts
2026-04-25 12:18 -16.97426 145.40002 4417 ft 176 kts 44°
2026-04-25 12:18 -16.96760 145.41032 4428 ft 170 kts 70°
2026-04-25 12:18 -16.96250 145.42166 4426 ft 170 kts 72°
2026-04-25 12:19 -16.95532 145.44087 4425 ft 171 kts 73°
2026-04-25 12:19 -16.94970 145.45638 4420 ft 161 kts 75°
2026-04-25 12:19 -16.94592 145.46695 4420 ft 149 kts 74°
2026-04-25 12:20 -16.94235 145.47682 4425 ft 143 kts 75°
2026-04-25 12:20 -16.93884 145.48640 4419 ft 140 kts 75°
2026-04-25 12:20 -16.93541 145.49593 4422 ft 140 kts 75°
2026-04-25 12:20 -16.93192 145.50562 4420 ft 142 kts 75°
2026-04-25 12:21 -16.92839 145.51537 4421 ft 144 kts 75°
2026-04-25 12:21 -16.92487 145.52527 4420 ft 145 kts 76°
2026-04-25 12:21 -16.92128 145.53520 4417 ft 145 kts 75°
2026-04-25 12:21 -16.91773 145.54517 4414 ft 145 kts 76°
2026-04-25 12:22 -16.91415 145.55502 4412 ft 145 kts 76°
2026-04-25 12:22 -16.91055 145.56511 4411 ft 145 kts 75°
2026-04-25 12:22 -16.90702 145.57497 4408 ft 145 kts 75°
2026-04-25 12:22 -16.90344 145.58501 4400 ft 145 kts 76°
2026-04-25 12:23 -16.89985 145.59489 4409 ft 145 kts 76°
2026-04-25 12:23 -16.89626 145.60487 4407 ft 145 kts 76°
2026-04-25 12:23 -16.89228 145.61459 4397 ft 145 kts 72°
2026-04-25 12:23 -16.88865 145.62439 4398 ft 143 kts 79°
2026-04-25 12:24 -16.88542 145.63435 4428 ft 138 kts 88°
2026-04-25 12:24 -16.88180 145.64506 2269 ft 224 kts 74°
2026-04-25 12:24 -16.87763 145.65846 1453 ft 178 kts 77°
2026-04-25 12:24 -16.87388 145.66945 1162 ft 138 kts 77°
2026-04-25 12:25 -16.87079 145.67835 1016 ft 128 kts 75°
2026-04-25 12:25 -16.86667 145.68655 991 ft 128 kts 68°
2026-04-25 12:25 -16.86254 145.69391 1205 ft 109 kts 69°
2026-04-25 12:25 -16.85863 145.70067 1239 ft 112 kts 69°
2026-04-25 12:26 -16.85440 145.70851 1032 ft 130 kts 68°
2026-04-25 12:26 -16.84993 145.71703 905 ft 133 kts 69°
2026-04-25 12:26 -16.84553 145.72537 892 ft 129 kts 69°
2026-04-25 12:26 -16.84176 145.73364 889 ft 127 kts 76°
2026-04-25 12:27 -16.83851 145.74274 897 ft 136 kts 76°
2026-04-25 12:27 -16.83518 145.75221 894 ft 141 kts 76°
2026-04-25 12:27 -16.83182 145.76192 886 ft 140 kts 78°
2026-04-25 12:27 -16.82858 145.77129 883 ft 131 kts 77°
2026-04-25 12:28 -16.82556 145.77998 884 ft 126 kts 77°
2026-04-25 12:28 -16.82264 145.78847 884 ft 123 kts 78°
2026-04-25 12:28 -16.81970 145.79700 885 ft 122 kts 78°
2026-04-25 12:28 -16.81670 145.80568 898 ft 134 kts 76°
2026-04-25 12:29 -16.81348 145.81502 896 ft 143 kts 76°
2026-04-25 12:29 -16.80999 145.82513 891 ft 148 kts 76°
2026-04-25 12:29 -16.80643 145.83540 890 ft 149 kts 77°
2026-04-25 12:29 -16.80290 145.84567 890 ft 150 kts 76°
2026-04-25 12:30 -16.79936 145.85600 890 ft 151 kts 76°
2026-04-25 12:30 -16.79578 145.86638 889 ft 150 kts 77°
2026-04-25 12:30 -16.79410 145.87653 1071 ft 130 kts 113°
2026-04-25 12:30 -16.80079 145.88232 1035 ft 141 kts 166°
2026-04-25 12:31 -16.81015 145.87811 1008 ft 162 kts 226°
2026-04-25 12:31 -16.81269 145.86610 914 ft 179 kts 269°
2026-04-25 12:31 -16.81328 145.85382 1124 ft 162 kts 253°
2026-04-25 12:31 -16.81605 145.84207 1027 ft 170 kts 246°
2026-04-25 12:32 -16.81925 145.82989 903 ft 176 kts 251°
2026-04-25 12:32 -16.82203 145.81760 881 ft 172 kts 250°
2026-04-25 12:32 -16.82478 145.80533 876 ft 170 kts 250°
2026-04-25 12:32 -16.82751 145.79330 880 ft 169 kts 251°
2026-04-25 12:33 -16.83024 145.78133 879 ft 168 kts 248°
2026-04-25 12:33 -16.83374 145.76970 877 ft 168 kts 248°
2026-04-25 12:33 -16.83668 145.75798 875 ft 158 kts 249°
2026-04-25 12:33 -16.83891 145.74835 868 ft 115 kts 248°
2026-04-25 12:34 -16.84086 145.74130 739 ft 93 kts 233°
2026-04-25 12:34 -16.84420 145.73613 600 ft 78 kts 199°
2026-04-25 12:34 -16.84905 145.73583 469 ft 62 kts 160°
2026-04-25 12:34 -16.85185 145.73689 372 ft 69 kts 152°
2026-04-25 12:35 -16.85787 145.73978 287 ft 63 kts 152°
2026-04-25 12:35 -16.86216 145.74184 150 ft 67 kts 153°
2026-04-25 12:35 -16.86643 145.74382 43 ft 66 kts 153°
2026-04-25 12:35 -16.87013 145.74551 16 ft 42 kts 158°
2026-04-25 12:36 -16.87210 145.74640 15 ft 22 kts 157°
2026-04-25 12:36 -16.87331 145.74695 15 ft 17 kts 156°
2026-04-25 12:36 -16.87439 145.74744 15 ft 16 kts 155°
2026-04-25 12:36 -16.87559 145.74799 15 ft 22 kts 158°
2026-04-25 12:37 -16.87714 145.74867 15 ft 20 kts 163°
2026-04-25 12:37 -16.87782 145.74780 15 ft 14 kts 246°
2026-04-25 12:37 -16.87842 145.74754 17 ft 8 kts 158°